This demonstration page uses our WeatherBlox Daily Observations layout. Learn more.

Left ArrowRight Arrow

Hourly Observations for June 15, 2016

Temp ( °F °C ) Dew Point ( °F °C ) Humidity (%) Winds ( mph kmh ) Pressure ( in mb ) Visibility ( mi km ) Precip ( " mm )
12:51 am 00:51 Clear 71 21.7 21 -6.1 15 15 NW 5 7 29.73 1007 10 16 0.00 0.00
1:51 am 01:51 Clear 63 17.2 25 -3.9 24 24 Calm 29.74 1007 10 16 0.00 0.00
2:51 am 02:51 Clear 62 16.7 26 -3.3 25 25 SE 6 9 29.75 1008 10 16 0.00 0.00
3:51 am 03:51 Clear 61 16.1 25 -3.9 25 25 ESE 3 6 29.76 1008 10 16 0.00 0.00
4:51 am 04:51 Clear 60 15.6 25 -3.9 26 26 SE 3 6 29.79 1009 10 16 0.00 0.00
5:51 am 05:51 Sunny 61 16.1 27 -2.8 27 27 Calm 29.80 1009 10 16 0.00 0.00
6:51 am 06:51 Sunny 69 20.6 26 -3.3 20 20 Calm 29.82 1010 10 16 0.00 0.00
7:51 am 07:51 Sunny 74 23.3 25 -3.9 16 16 Calm 29.83 1010 10 16 0.00 0.00
8:51 am 08:51 Sunny 81 27.2 22 -5.6 11 11 W 3 6 29.83 1010 10 16 0.00 0.00
9:51 am 09:51 Sunny 87 30.6 19 -7.2 8 8 Calm 29.82 1010 10 16 0.00 0.00
10:51 am 10:51 Sunny 92 33.3 21 -6.1 7 7 VRB 5 7 29.81 1010 10 16 0.00 0.00
11:51 am 11:51 Sunny 93 33.9 21 -6.1 7 7 VRB 3 6 29.79 1009 10 16 0.00 0.00
12:51 pm 12:51 Sunny 97 36.1 23 -5 7 7 W 6 9 29.77 1008 10 16 0.00 0.00
1:51 pm 13:51 Sunny 98 36.7 24 -4.4 7 7 NW 8 13 29.75 1008 10 16 0.00 0.00
2:51 pm 14:51 Sunny 100 37.8 23 -5 6 6 undefined N/A 29.73 1007 10 16 0.00 0.00
3:51 pm 15:51 Sunny 100 37.8 23 -5 6 6 WNW 10 17 29.71 1006 10 16 0.00 0.00
4:51 pm 16:51 Sunny 100 37.8 25 -3.9 7 7 NW 12 19 29.70 1006 10 16 0.00 0.00
5:51 pm 17:51 Sunny 99 37.2 29 -1.7 8 8 WNW 15 24 29.69 1005 10 16 0.00 0.00
6:51 pm 18:51 Sunny 95 35 28 -2.2 9 9 W 18 30 29.70 1006 10 16 0.00 0.00
7:51 pm 19:51 Clear 91 32.8 24 -4.4 9 9 WNW 14 22 29.71 1006 10 16 0.00 0.00
8:51 pm 20:51 Clear 87 30.6 19 -7.2 8 8 NNW 14 22 29.73 1007 10 16 0.00 0.00
9:51 pm 21:51 Clear 83 28.3 18 -7.8 9 9 WNW 12 19 29.75 1007 10 16 0.00 0.00
10:51 pm 22:51 Clear 80 26.7 18 -7.8 10 10 NW 9 15 29.76 1008 10 16 0.00 0.00
11:51 pm 23:51 Clear 77 25 18 -7.8 11 11 NW 13 20 29.78 1008 10 16 0.00 0.00

Powered by AerisWeather